Time,TemperatureF,DewpointF,PressureIn,WindDirection,WindDirectionDegrees,WindSpeedMPH,WindSpeedGustMPH,Humidity,HourlyPrecipIn,Conditions,Clouds,dailyrainin,SolarRadiationWatts/m^2,SoftwareType,DateUTC
2013-09-05 00:04:00,66.0,65.0,-100.00,WSW,245,2.0,3.0,97,0.00,,,0.00,0.000000,,2013-09-05 04:04:00,
2013-09-05 00:44:00,64.0,63.0,-100.00,WSW,238,1.0,3.0,97,0.00,,,0.00,0.000000,,2013-09-05 04:44:00,
2013-09-05 00:53:00,64.0,63.0,-100.00,WSW,238,1.0,3.0,97,0.00,,,0.00,0.000000,,2013-09-05 04:53:00,
2013-09-05 01:03:00,64.0,63.0,-100.00,WSW,238,1.0,3.0,97,0.00,,,0.00,0.000000,,2013-09-05 05:03:00,
2013-09-05 01:43:00,63.0,62.0,-100.00,WSW,252,2.0,3.0,97,0.00,,,0.00,0.000000,,2013-09-05 05:43:00,
2013-09-05 01:52:00,63.0,62.0,-100.00,WSW,252,2.0,3.0,97,0.00,,,0.00,0.000000,,2013-09-05 05:52:00,
2013-09-05 02:02:00,63.0,62.0,-100.00,WSW,252,2.0,3.0,97,0.00,,,0.00,0.000000,,2013-09-05 06:02:00,
2013-09-05 02:42:00,63.0,62.0,-100.00,NW,304,1.0,2.0,98,0.00,,,0.00,0.000000,,2013-09-05 06:42:00,
2013-09-05 02:52:00,63.0,62.0,-100.00,NW,304,1.0,2.0,98,0.00,,,0.00,0.000000,,2013-09-05 06:52:00,
2013-09-05 03:01:00,63.0,62.0,-100.00,NW,304,1.0,2.0,98,0.00,,,0.00,0.000000,,2013-09-05 07:01:00,
2013-09-05 03:42:00,63.0,63.0,-100.00,WSW,237,2.0,3.0,99,0.00,,,0.00,0.000000,,2013-09-05 07:42:00,
2013-09-05 03:52:00,63.0,63.0,-100.00,WSW,237,2.0,3.0,99,0.00,,,0.00,0.000000,,2013-09-05 07:52:00,
2013-09-05 04:03:00,63.0,63.0,-100.00,WSW,237,2.0,3.0,99,0.00,,,0.00,0.000000,,2013-09-05 08:03:00,
2013-09-05 04:42:00,63.0,63.0,-100.00,WSW,250,1.0,2.0,99,0.00,,,0.00,0.000000,,2013-09-05 08:42:00,
2013-09-05 04:52:00,63.0,63.0,-100.00,WSW,250,1.0,2.0,99,0.00,,,0.00,0.000000,,2013-09-05 08:52:00,
2013-09-05 05:03:00,63.0,63.0,-100.00,WSW,250,1.0,2.0,99,0.00,,,0.00,0.000000,,2013-09-05 09:03:00,
2013-09-05 05:43:00,62.0,62.0,-100.00,WSW,254,2.0,4.0,99,0.00,,,0.00,0.000000,,2013-09-05 09:43:00,
2013-09-05 05:54:00,62.0,62.0,-100.00,WSW,254,2.0,4.0,99,0.00,,,0.00,0.000000,,2013-09-05 09:54:00,
2013-09-05 06:03:00,62.0,62.0,-100.00,WSW,254,2.0,4.0,99,0.00,,,0.00,0.000000,,2013-09-05 10:03:00,
2013-09-05 06:43:00,62.0,62.0,-100.00,SW,224,1.0,4.0,99,0.00,,,0.00,0.000000,,2013-09-05 10:43:00,
2013-09-05 06:53:00,62.0,62.0,-100.00,SW,224,1.0,4.0,99,0.00,,,0.00,0.000000,,2013-09-05 10:53:00,
2013-09-05 07:03:00,62.0,62.0,-100.00,SW,224,1.0,4.0,99,0.00,,,0.00,0.000000,,2013-09-05 11:03:00,
2013-09-05 07:43:00,62.0,62.0,-100.00,East,80,2.0,4.0,99,0.00,,,0.00,0.000000,,2013-09-05 11:43:00,
2013-09-05 07:52:00,62.0,62.0,-100.00,East,80,2.0,4.0,99,0.00,,,0.00,0.000000,,2013-09-05 11:52:00,
2013-09-05 08:01:00,62.0,62.0,-100.00,East,80,2.0,4.0,99,0.00,,,0.00,0.000000,,2013-09-05 12:01:00,
2013-09-05 08:42:00,63.0,63.0,-100.00,NNW,329,2.0,5.0,99,0.00,,,0.00,22.000000,,2013-09-05 12:42:00,
2013-09-05 08:52:00,63.0,63.0,-100.00,NNW,329,2.0,5.0,99,0.00,,,0.00,22.000000,,2013-09-05 12:52:00,
2013-09-05 09:01:00,63.0,63.0,-100.00,NNW,329,2.0,5.0,99,0.00,,,0.00,22.000000,,2013-09-05 13:01:00,
2013-09-05 09:42:00,63.0,63.0,-100.00,WSW,248,3.0,5.0,99,0.00,,,0.00,61.000000,,2013-09-05 13:42:00,
2013-09-05 09:53:00,63.0,63.0,-100.00,WSW,248,3.0,5.0,99,0.00,,,0.00,61.000000,,2013-09-05 13:53:00,
2013-09-05 10:02:00,63.0,63.0,-100.00,WSW,248,3.0,5.0,99,0.00,,,0.00,61.000000,,2013-09-05 14:02:00,
2013-09-05 10:42:00,65.0,65.0,-100.00,SW,229,2.0,4.0,99,0.00,,,0.00,90.000000,,2013-09-05 14:42:00,
2013-09-05 10:52:00,65.0,65.0,-100.00,SW,229,2.0,4.0,99,0.00,,,0.00,90.000000,,2013-09-05 14:52:00,
2013-09-05 11:02:00,65.0,65.0,-100.00,SW,229,2.0,4.0,99,0.00,,,0.00,90.000000,,2013-09-05 15:02:00,
2013-09-05 11:44:00,68.0,66.0,-100.00,NNW,345,2.0,5.0,94,0.00,,,0.00,172.000000,,2013-09-05 15:44:00,
2013-09-05 11:54:00,68.0,66.0,-100.00,NNW,345,2.0,5.0,94,0.00,,,0.00,172.000000,,2013-09-05 15:54:00,
2013-09-05 12:03:00,68.0,66.0,-100.00,NNW,345,2.0,5.0,94,0.00,,,0.00,172.000000,,2013-09-05 16:03:00,
2013-09-05 12:43:00,72.0,66.0,-100.00,WNW,292,4.0,5.0,81,0.00,,,0.00,383.000000,,2013-09-05 16:43:00,
2013-09-05 12:54:00,72.0,66.0,-100.00,WNW,292,4.0,5.0,81,0.00,,,0.00,383.000000,,2013-09-05 16:54:00,
2013-09-05 13:03:00,72.0,66.0,-100.00,WNW,292,4.0,5.0,81,0.00,,,0.00,383.000000,,2013-09-05 17:03:00,
2013-09-05 13:43:00,80.0,68.0,-100.00,ENE,67,2.0,5.0,66,0.00,,,0.00,794.000000,,2013-09-05 17:43:00,
2013-09-05 13:52:00,80.0,68.0,-100.00,ENE,67,2.0,5.0,66,0.00,,,0.00,794.000000,,2013-09-05 17:52:00,
2013-09-05 14:02:00,80.0,68.0,-100.00,ENE,67,2.0,5.0,66,0.00,,,0.00,794.000000,,2013-09-05 18:02:00,
2013-09-05 14:43:00,85.0,61.0,-100.00,NNW,343,3.0,6.0,44,0.00,,,0.00,788.000000,,2013-09-05 18:43:00,
2013-09-05 14:52:00,85.0,61.0,-100.00,NNW,343,3.0,6.0,44,0.00,,,0.00,788.000000,,2013-09-05 18:52:00,
2013-09-05 15:02:00,85.0,61.0,-100.00,NNW,343,3.0,6.0,44,0.00,,,0.00,788.000000,,2013-09-05 19:02:00,
2013-09-05 15:42:00,86.0,62.0,-100.00,SW,227,3.0,6.0,45,0.00,,,0.00,689.000000,,2013-09-05 19:42:00,
2013-09-05 15:52:00,86.0,62.0,-100.00,SW,227,3.0,6.0,45,0.00,,,0.00,689.000000,,2013-09-05 19:52:00,
2013-09-05 16:03:00,86.0,62.0,-100.00,SW,227,3.0,6.0,45,0.00,,,0.00,689.000000,,2013-09-05 20:03:00,
2013-09-05 16:43:00,86.0,62.0,-100.00,NNW,336,2.0,6.0,45,0.00,,,0.00,554.000000,,2013-09-05 20:43:00,
2013-09-05 16:52:00,86.0,62.0,-100.00,NNW,336,2.0,6.0,45,0.00,,,0.00,554.000000,,2013-09-05 20:52:00,
2013-09-05 17:02:00,86.0,62.0,-100.00,NNW,336,2.0,6.0,45,0.00,,,0.00,554.000000,,2013-09-05 21:02:00,
2013-09-05 17:44:00,86.0,58.0,-100.00,North,2,4.0,7.0,39,0.00,,,0.00,539.000000,,2013-09-05 21:44:00,
2013-09-05 17:54:00,86.0,58.0,-100.00,North,2,4.0,7.0,39,0.00,,,0.00,539.000000,,2013-09-05 21:54:00,
2013-09-05 18:04:00,86.0,58.0,-100.00,North,2,4.0,7.0,39,0.00,,,0.00,539.000000,,2013-09-05 22:04:00,
2013-09-05 18:43:00,83.0,59.0,-100.00,NW,319,3.0,7.0,45,0.00,,,0.00,354.000000,,2013-09-05 22:43:00,
2013-09-05 18:53:00,83.0,59.0,-100.00,NW,319,3.0,7.0,45,0.00,,,0.00,354.000000,,2013-09-05 22:53:00,
2013-09-05 19:02:00,83.0,59.0,-100.00,NW,319,3.0,7.0,45,0.00,,,0.00,354.000000,,2013-09-05 23:02:00,
2013-09-05 19:42:00,78.0,63.0,-100.00,NE,46,1.0,5.0,60,0.00,,,0.00,161.000000,,2013-09-05 23:42:00,
2013-09-05 19:53:00,78.0,63.0,-100.00,NE,46,1.0,5.0,60,0.00,,,0.00,161.000000,,2013-09-05 23:53:00,
2013-09-05 20:02:00,78.0,63.0,-100.00,NE,46,1.0,5.0,60,0.00,,,0.00,161.000000,,2013-09-06 00:02:00,
2013-09-05 20:42:00,71.0,64.0,-100.00,ESE,109,0.0,5.0,79,0.00,,,0.00,18.000000,,2013-09-06 00:42:00,
2013-09-05 20:52:00,71.0,64.0,-100.00,ESE,109,0.0,5.0,79,0.00,,,0.00,18.000000,,2013-09-06 00:52:00,
2013-09-05 21:02:00,71.0,64.0,-100.00,ESE,109,0.0,5.0,79,0.00,,,0.00,18.000000,,2013-09-06 01:02:00,
2013-09-05 21:42:00,67.0,63.0,-100.00,SW,230,2.0,5.0,88,0.00,,,0.00,0.000000,,2013-09-06 01:42:00,
2013-09-05 21:52:00,67.0,63.0,-100.00,SW,230,2.0,5.0,88,0.00,,,0.00,0.000000,,2013-09-06 01:52:00,
2013-09-05 22:02:00,67.0,63.0,-100.00,SW,230,2.0,5.0,88,0.00,,,0.00,0.000000,,2013-09-06 02:02:00,
2013-09-05 22:42:00,65.0,63.0,-100.00,WNW,300,1.0,4.0,92,0.00,,,0.00,0.000000,,2013-09-06 02:42:00,
2013-09-05 22:52:00,65.0,63.0,-100.00,WNW,300,1.0,4.0,92,0.00,,,0.00,0.000000,,2013-09-06 02:52:00,
2013-09-05 23:02:00,65.0,63.0,-100.00,WNW,300,1.0,4.0,92,0.00,,,0.00,0.000000,,2013-09-06 03:02:00,
2013-09-05 23:44:00,63.0,62.0,-100.00,NNW,340,1.0,3.0,96,0.00,,,0.00,0.000000,,2013-09-06 03:44:00,
2013-09-05 23:55:00,63.0,62.0,-100.00,NNW,340,1.0,3.0,96,0.00,,,0.00,0.000000,,2013-09-06 03:55:00,